EST,Max TemperatureF,Mean TemperatureF,Min TemperatureF,Max Dew PointF,MeanDew PointF,Min DewpointF,Max Humidity, Mean Humidity, Min Humidity, Max Sea Level PressureIn, Mean Sea Level PressureIn, Min Sea Level PressureIn, Max VisibilityMiles, Mean VisibilityMiles, Min VisibilityMiles, Max Wind SpeedMPH, Mean Wind SpeedMPH, Max Gust SpeedMPH,PrecipitationIn, CloudCover, Events, WindDirDegrees
2012-11-1,59,47,34,31,25,20,70,46,21,29.97,29.91,29.89,10,10,10,18,7,23,0.00,4,,259
2012-11-2,57,50,43,35,32,30,65,52,38,30.09,29.97,29.84,10,10,10,16,7,20,0.00,5,,345
2012-11-3,50,45,39,41,36,30,89,76,62,30.19,30.10,30.03,10,9,5,16,6,20,0.14,7,Rain-Thunderstorm,45
2012-11-4,54,45,35,39,34,30,92,69,46,30.19,30.15,30.12,10,10,7,13,6,15,0.00,3,,359
2012-11-5,51,41,31,34,31,28,92,71,50,30.19,30.13,30.07,10,10,7,10,3,14,0.00,5,,56
2012-11-6,54,45,36,40,32,29,83,61,38,30.06,29.99,29.92,10,10,6,14,3,17,0.02,5,Rain,320
2012-11-7,50,45,39,43,40,36,96,84,71,30.14,29.98,29.89,9,6,2,10,5,13,0.04,7,Rain,353
2012-11-8,56,45,34,38,35,31,100,72,43,30.27,30.20,30.15,10,6,3,8,1,9,0.00,1,,239
2012-11-9,65,49,33,41,37,31,96,68,40,30.27,30.19,30.12,10,8,3,16,6,18,0.00,2,,144
2012-11-10,74,61,48,47,42,38,66,49,31,30.22,30.17,30.11,10,10,10,20,9,28,0.00,2,,173
2012-11-11,72,63,53,48,41,38,59,46,33,30.24,30.15,30.06,10,10,10,25,14,36,0.00,6,,169
2012-11-12,65,50,34,56,40,25,93,73,53,30.45,30.20,30.00,10,9,2,29,11,36,0.47,6,Rain,266
2012-11-13,49,39,29,27,24,21,92,63,34,30.53,30.48,30.45,10,10,10,9,3,14,0.00,0,,29
2012-11-14,49,40,30,29,27,24,78,62,45,30.52,30.45,30.38,10,10,10,12,5,15,0.00,5,,43
2012-11-15,51,40,29,31,29,26,85,65,44,30.40,30.35,30.32,10,9,5,9,4,13,0.00,5,,351
2012-11-16,54,43,31,34,31,29,89,64,38,30.46,30.42,30.37,10,8,3,12,4,14,0.00,1,,9
2012-11-17,61,46,31,34,31,29,89,61,33,30.53,30.47,30.43,10,8,3,9,4,14,0.00,0,,25
2012-11-18,65,49,32,32,31,29,82,54,26,30.45,30.40,30.34,10,10,7,6,1,7,0.00,2,,347
2012-11-19,64,50,35,35,32,31,82,55,28,30.35,30.29,30.18,10,9,7,7,0,7,0.00,6,,45
2012-11-20,65,54,43,42,38,35,71,56,40,30.18,30.12,30.05,10,10,9,8,2,9,0.00,6,,88
2012-11-21,65,55,44,43,41,39,77,59,40,30.24,30.19,30.11,10,8,4,10,4,13,0.00,4,,352
2012-11-22,68,53,37,43,40,36,92,66,39,30.22,30.14,30.05,10,8,4,15,5,21,0.00,4,,189
2012-11-23,59,46,32,49,33,19,83,62,41,30.25,30.10,30.00,10,10,9,28,15,35,T,5,Rain,284
2012-11-24,38,31,24,22,19,17,74,61,48,30.30,30.24,30.16,10,10,10,14,6,17,0.00,2,,291
2012-11-25,56,42,28,25,23,21,75,51,27,30.14,30.04,29.92,10,10,9,21,7,26,0.00,6,,195
2012-11-26,50,42,33,39,31,26,89,69,49,30.22,30.14,30.06,10,10,7,15,3,20,0.06,5,Rain,16
2012-11-27,46,38,30,36,31,25,92,73,53,30.37,30.31,30.22,10,8,7,17,7,22,0.02,5,Rain,6
2012-11-28,48,38,27,28,25,22,92,66,39,30.48,30.41,30.34,10,8,5,8,2,12,0.00,0,,262
2012-11-29,54,41,27,30,27,23,85,62,38,30.42,30.34,30.25,10,9,5,12,5,14,0.00,2,,159
2012-11-30,61,53,45,40,35,28,71,57,42,30.27,30.22,30.15,10,10,9,18,8,24,0.00,4,,190